Date String (YYYY-MM-DD hh:mm:ss) UTC,Instrument flags,Ambient pressure (hPa),Sample flow (lpm),Bypass flow (lpm),Sample temperature (°C),Ambient temperature (°C),ASC tube jacket temperature (°C),LED temperature (°C),Box temperature (°C),Sample RH (%),Span deviation,Mass concentration (μg/m³),Mass concentration (μg/m³),Mass concentration (μg/m³)
DateTimeUTC,F1_M11,P_M11,Q1_M11,Q2_M11,T1_M11,T2_M11,T3_M11,T4_M11,T5_M11,U1_M11,ZSPAN_M11,X0_M11,X2_M11,X1_M11
2023-01-08 22:00:00,,0824.3,5.00,0.00,24.7,23.3,00.0,33.5,26.5,06.5,-000.6,0006.87,0004.05,0003.85
2023-01-08 22:01:00,,0824.4,4.99,0.00,24.7,23.3,00.0,33.5,26.5,07.7,-000.3,0005.91,0003.63,0003.42
2023-01-08 22:02:00,,0824.4,5.00,0.00,24.6,23.1,00.0,33.5,26.4,11.8,-002.1,0007.12,0004.11,0003.83
2023-01-08 22:03:00,,0824.3,5.00,0.00,24.6,23.1,00.0,33.5,26.3,11.5,-002.8,0008.55,0005.03,0004.67
2023-01-08 22:04:00,,0824.2,5.02,0.00,24.6,23.0,00.0,33.5,26.4,11.1,-003.1,0010.18,0006.02,0005.60
2023-01-08 22:05:00,,0824.3,5.01,0.00,24.6,23.1,00.0,33.5,26.4,10.7,-003.2,0011.25,0006.94,0006.51
2023-01-08 22:06:00,,0824.2,4.99,0.00,24.6,23.2,00.0,33.5,26.4,10.2,-002.9,0012.43,0007.79,0007.28
2023-01-08 22:07:00,,0824.1,5.00,0.00,24.6,23.2,00.0,33.5,26.4,10.1,-002.8,0013.42,0008.54,0008.02
2023-01-08 22:08:00,,0824.1,5.00,0.00,24.6,23.2,00.0,33.5,26.5,09.2,-002.7,0014.28,0009.18,0008.62
2023-01-08 22:09:00,,0824.1,5.00,0.00,24.6,23.3,00.0,33.5,26.5,08.5,-002.7,0014.87,0009.64,0009.07
2023-01-08 22:10:00,,0824.1,4.99,0.00,24.6,23.3,00.0,33.5,26.5,09.8,-002.6,0015.72,0010.27,0009.65
2023-01-08 22:11:00,,0824.1,4.99,0.00,24.6,23.3,00.0,33.5,26.5,11.3,-002.6,0017.29,0011.25,0010.57
2023-01-08 22:12:00,,0824.1,4.99,0.00,24.6,23.3,00.0,33.5,26.4,11.1,-002.6,0018.44,0012.12,0011.43
2023-01-08 22:13:00,,0824.1,4.99,0.00,24.6,23.4,00.0,33.5,26.5,10.6,-002.4,0018.51,0012.22,0011.55
2023-01-08 22:14:00,,0824.1,5.00,0.00,24.6,23.4,00.0,33.5,26.5,08.6,-002.3,0017.82,0011.79,0011.20
2023-01-08 22:15:00,,0824.1,5.00,0.00,24.6,23.4,00.0,33.5,26.5,08.0,-002.1,0016.74,0011.28,0010.74
2023-01-08 22:16:00,,0824.1,5.00,0.00,24.6,23.5,00.0,33.5,26.5,07.3,-001.8,0015.98,0010.70,0010.18
2023-01-08 22:17:00,,0824.1,5.00,0.00,24.6,23.5,00.0,33.5,26.5,07.2,-001.7,0015.37,0010.14,0009.68
2023-01-08 22:18:00,,0824.1,5.00,0.00,24.7,23.6,00.0,33.5,26.6,07.1,-001.6,0014.77,0009.66,0009.24
2023-01-08 22:19:00,,0824.1,5.00,0.00,24.7,23.5,00.0,33.5,26.5,07.3,-001.5,0014.21,0009.27,0008.86
2023-01-08 22:20:00,,0824.1,4.99,0.00,24.7,23.4,00.0,33.5,26.5,07.8,-001.2,0014.02,0009.17,0008.76
2023-01-08 22:21:00,,0824.1,4.99,0.00,24.7,23.4,00.0,33.5,26.5,08.3,-001.2,0013.91,0009.09,0008.70
2023-01-08 22:22:00,,0824.1,5.02,0.00,24.7,23.5,00.0,33.5,26.5,09.1,-001.2,0013.30,0008.75,0008.38
2023-01-08 22:23:00,,0824.1,5.00,0.00,24.7,23.5,00.0,33.5,26.6,09.9,-001.3,0012.81,0008.46,0008.09
2023-01-08 22:24:00,,0824.1,5.02,0.00,24.7,23.6,00.0,33.5,26.6,09.8,-001.0,0012.55,0008.28,0007.87
2023-01-08 22:25:00,,0824.1,5.00,0.00,24.7,23.6,00.0,33.5,26.6,09.4,-000.7,0012.63,0008.37,0007.95
2023-01-08 22:26:00,,0824.1,5.01,0.00,24.7,23.7,00.0,33.5,26.6,09.9,-000.9,0013.37,0008.69,0008.22
2023-01-08 22:27:00,,0824.2,5.01,0.00,24.8,23.7,00.0,33.6,26.6,10.1,-001.3,0014.34,0009.17,0008.61
2023-01-08 22:28:00,,0824.3,5.01,0.00,24.8,23.7,00.0,33.6,26.6,11.0,-001.5,0015.30,0009.74,0009.12
2023-01-08 22:29:00,,0824.2,5.00,0.00,24.8,23.8,00.0,33.6,26.7,11.7,-001.7,0016.45,0010.42,0009.71
2023-01-08 22:30:00,,0824.1,5.00,0.00,24.8,23.8,00.0,33.6,26.7,12.0,-001.8,0017.36,0011.07,0010.31
2023-01-08 22:31:00,,0824.1,5.00,0.00,24.8,23.8,00.0,33.6,26.7,12.0,-002.0,0018.28,0011.60,0010.84
2023-01-08 22:32:00,,0824.1,5.00,0.00,24.9,23.8,00.0,33.6,26.8,12.0,-002.0,0019.14,0012.02,0011.25
2023-01-08 22:33:00,,0824.2,5.00,0.00,24.9,23.8,00.0,33.6,26.8,12.1,-002.0,0019.50,0012.35,0011.59
2023-01-08 22:34:00,,0824.2,5.00,0.00,24.9,23.8,00.0,33.6,26.8,12.1,-002.0,0019.97,0012.62,0011.81
2023-01-08 22:35:00,,0824.3,5.00,0.00,24.9,23.9,00.0,33.7,26.8,12.6,-002.1,0020.42,0012.83,0012.01
2023-01-08 22:36:00,,0824.2,4.99,0.00,24.9,23.9,00.0,33.7,26.8,12.5,-002.3,0021.02,0013.15,0012.27
2023-01-08 22:37:00,,0824.2,5.01,0.00,25.0,23.9,00.0,33.7,26.8,12.4,-002.3,0021.72,0013.34,0012.46
2023-01-08 22:38:00,,0824.1,5.00,0.00,25.0,23.9,00.0,33.7,26.8,12.1,-002.3,0021.79,0013.54,0012.66
2023-01-08 22:39:00,,0824.1,5.00,0.00,25.0,23.9,00.0,33.7,26.9,11.7,-002.2,0022.06,0013.64,0012.79
2023-01-08 22:40:00,,0824.1,5.00,0.00,25.0,23.8,00.0,33.7,26.9,10.9,-002.2,0021.83,0013.69,0012.85
2023-01-08 22:41:00,,0824.1,5.00,0.00,25.0,23.8,00.0,33.7,26.8,10.7,-002.2,0022.09,0013.75,0012.87
2023-01-08 22:42:00,,0824.1,5.00,0.00,25.0,23.8,00.0,33.7,26.8,11.0,-002.2,0022.36,0013.80,0012.88
2023-01-08 22:43:00,,0824.1,4.99,0.00,25.0,23.8,00.0,33.8,26.8,11.0,-002.1,0022.34,0013.91,0012.95
2023-01-08 22:44:00,,0824.1,4.99,0.00,25.0,23.8,00.0,33.8,26.8,10.6,-002.1,0022.99,0014.01,0013.02
2023-01-08 22:45:00,,0824.2,5.01,0.00,25.0,23.8,00.0,33.8,26.8,09.7,-002.1,0023.06,0013.97,0013.02
2023-01-08 22:46:00,,0824.2,5.00,0.00,25.0,23.7,00.0,33.8,26.8,09.4,-002.1,0023.44,0013.95,0013.03
2023-01-08 22:47:00,,0824.1,5.00,0.00,24.9,23.6,00.0,33.8,26.8,09.7,-002.0,0023.34,0014.05,0013.13
2023-01-08 22:48:00,,0824.1,5.01,0.00,24.9,23.6,00.0,33.8,26.7,09.8,-001.8,0023.36,0014.18,0013.26
2023-01-08 22:49:00,,0824.1,5.00,0.00,24.9,23.6,00.0,33.8,26.7,10.1,-001.8,0023.40,0014.28,0013.38
2023-01-08 22:50:00,,0824.2,5.00,0.00,24.9,23.7,00.0,33.8,26.8,09.7,-001.7,0023.14,0014.33,0013.43
2023-01-08 22:51:00,,0824.2,5.00,0.00,24.9,23.7,00.0,33.8,26.8,09.8,-001.8,0022.82,0014.29,0013.39
2023-01-08 22:52:00,,0824.3,5.02,0.00,24.9,23.8,00.0,33.8,26.8,09.6,-001.7,0022.46,0014.21,0013.36
2023-01-08 22:53:00,,0824.2,5.00,0.00,24.9,23.8,00.0,33.8,26.8,09.4,-001.6,0021.94,0014.10,0013.27
2023-01-08 22:54:00,,0824.2,5.01,0.00,24.9,23.7,00.0,33.8,26.8,09.5,-001.6,0021.42,0013.97,0013.17
2023-01-08 22:55:00,,0824.3,4.99,0.00,24.9,23.7,00.0,33.8,26.7,10.5,-001.5,0021.02,0013.85,0013.06
2023-01-08 22:56:00,,0824.3,4.99,0.00,24.9,23.7,00.0,33.8,26.7,10.9,-001.6,0021.02,0013.87,0013.07
2023-01-08 22:57:00,,0824.4,5.00,0.00,24.9,23.7,00.0,33.8,26.7,11.1,-001.5,0020.55,0013.92,0013.13
2023-01-08 22:58:00,,0824.3,5.02,0.00,24.9,23.7,00.0,33.8,26.8,10.7,-001.5,0020.68,0013.87,0013.06
2023-01-08 22:59:00,,0824.2,5.01,0.00,24.9,23.8,00.0,33.8,26.8,11.2,-001.4,0020.48,0013.76,0012.96
